Precipitable_Water
0.50 0.45 0.39 0.37 0.36 0.37 0.37 0.38 0.38 0.37 0.36 0.35 0.33 0.32 0.30 0.35 0.39 0.48 0.49 0.57 0.80 1.07 1.06 1.05 1.09 1.15 1.19 0.92 0.96 0.93 0.57 0.42 0.41 0.43 0.48 0.68 0.72 0.93 1.12 1.05 1.11 1.09 1.17 1.21 1.34
0.49 0.47 0.43 0.38 0.37 0.37 0.37 0.38 0.39 0.38 0.37 0.36 0.34 0.33 0.31 0.36 0.26 0.23 0.39 0.67 0.88 1.00 0.90 0.83 0.77 0.89 0.78 0.70 0.75 0.66 0.50 0.44 0.50 0.49 0.51 0.61 0.67 0.78 0.85 0.95 1.01 1.07 1.23 1.33 1.34
0.47 0.46 0.45 0.40 0.37 0.38 0.38 0.40 0.41 0.40 0.39 0.37 0.37 0.35 0.33 0.37 0.31 0.35 0.51 0.58 0.80 0.85 0.83 0.77 0.75 0.72 0.60 0.60 0.59 0.63 0.46 0.50 0.53 0.52 0.55 0.57 0.59 0.75 0.75 0.76 0.94 0.91 1.06 1.22 1.26
0.48 0.46 0.45 0.43 0.36 0.36 0.37 0.39 0.41 0.40 0.39 0.39 0.38 0.38 0.36 0.30 0.28 0.45 0.59 0.53 0.71 0.74 0.74 0.62 0.63 0.51 0.49 0.48 0.55 0.49 0.50 0.53 0.58 0.56 0.52 0.52 0.59 0.58 0.68 0.75 0.98 1.07 1.15 1.24 1.23
0.50 0.48 0.44 0.43 0.40 0.35 0.35 0.38 0.40 0.40 0.40 0.40 0.40 0.39 0.28 0.18 0.27 0.63 0.63 0.58 0.66 0.59 0.56 0.58 0.49 0.48 0.43 0.48 0.49 0.47 0.49 0.51 0.55 0.65 0.60 0.61 0.57 0.58 0.61 0.78 0.93 1.11 1.16 1.23 1.30
0.49 0.48 0.46 0.42 0.41 0.37 0.34 0.35 0.39 0.39 0.39 0.40 0.43 0.43 0.25 0.15 0.32 0.61 0.66 0.60 0.51 0.45 0.41 0.45 0.42 0.43 0.43 0.45 0.45 0.47 0.46 0.49 0.57 0.66 0.66 0.59 0.61 0.62 0.66 0.82 0.87 1.00 1.09 1.23 1.34
0.42 0.44 0.46 0.44 0.42 0.40 0.37 0.34 0.37 0.39 0.39 0.42 0.46 0.41 0.26 0.20 0.28 0.47 0.49 0.45 0.43 0.33 0.29 0.37 0.42 0.42 0.42 0.38 0.45 0.41 0.39 0.46 0.54 0.54 0.56 0.63 0.56 0.57 0.72 0.86 0.84 0.95 1.08 1.22 1.38
0.40 0.40 0.41 0.43 0.43 0.42 0.39 0.36 0.35 0.39 0.43 0.48 0.48 0.40 0.24 0.27 0.29 0.27 0.40 0.32 0.37 0.37 0.33 0.34 0.39 0.39 0.40 0.42 0.37 0.37 0.38 0.34 0.45 0.48 0.52 0.55 0.40 0.55 0.71 0.80 0.81 0.94 1.02 1.22 1.34
0.41 0.38 0.37 0.38 0.42 0.42 0.39 0.38 0.40 0.44 0.51 0.53 0.41 0.32 0.24 0.33 0.24 0.26 0.28 0.22 0.27 0.32 0.34 0.33 0.31 0.29 0.33 0.32 0.29 0.33 0.27 0.32 0.38 0.42 0.44 0.37 0.33 0.50 0.72 0.73 0.79 0.88 0.97 1.16 1.30
0.46 0.41 0.37 0.35 0.36 0.40 0.40 0.41 0.46 0.54 0.55 0.56 0.48 0.29 0.28 0.27 0.33 0.33 0.34 0.30 0.24 0.24 0.26 0.28 0.26 0.23 0.25 0.26 0.22 0.24 0.25 0.25 0.30 0.40 0.36 0.33 0.38 0.47 0.59 0.69 0.76 0.89 1.03 1.14 1.25
0.49 0.45 0.41 0.37 0.33 0.35 0.37 0.38 0.33 0.30 0.34 0.31 0.34 0.28 0.29 0.37 0.40 0.35 0.34 0.27 0.22 0.21 0.19 0.22 0.19 0.19 0.21 0.24 0.26 0.25 0.23 0.22 0.33 0.38 0.34 0.33 0.41 0.42 0.52 0.67 0.72 0.82 0.97 1.08 1.20
0.52 0.49 0.44 0.40 0.36 0.35 0.34 0.30 0.36 0.38 0.26 0.31 0.34 0.37 0.35 0.37 0.32 0.33 0.35 0.25 0.20 0.16 0.20 0.19 0.17 0.22 0.24 0.25 0.24 0.22 0.19 0.18 0.29 0.38 0.32 0.36 0.38 0.49 0.58 0.58 0.66 0.78 0.93 1.02 1.11
0.48 0.50 0.49 0.42 0.39 0.34 0.27 0.31 0.40 0.43 0.30 0.29 0.29 0.29 0.32 0.32 0.29 0.30 0.33 0.29 0.23 0.19 0.17 0.14 0.16 0.20 0.20 0.22 0.19 0.19 0.17 0.16 0.22 0.31 0.32 0.30 0.31 0.41 0.61 0.71 0.70 0.79 0.93 1.04 1.04
0.51 0.47 0.49 0.44 0.34 0.33 0.28 0.37 0.36 0.40 0.21 0.23 0.28 0.30 0.30 0.30 0.26 0.35 0.33 0.30 0.26 0.21 0.20 0.16 0.15 0.15 0.18 0.16 0.21 0.16 0.21 0.19 0.22 0.25 0.22 0.28 0.20 0.31 0.55 0.62 0.69 0.74 0.81 0.91 1.02
0.54 0.52 0.47 0.47 0.35 0.31 0.35 0.35 0.39 0.34 0.11 0.17 0.23 0.36 0.34 0.29 0.27 0.31 0.35 0.30 0.26 0.25 0.23 0.19 0.16 0.15 0.16 0.19 0.22 0.20 0.23 0.21 0.24 0.25 0.22 0.23 0.21 0.24 0.45 0.44 0.57 0.69 0.80 0.90 1.05
0.46 0.53 0.53 0.42 0.39 0.33 0.39 0.39 0.38 0.19 0.11 0.15 0.21 0.20 0.21 0.26 0.26 0.27 0.28 0.28 0.31 0.27 0.25 0.23 0.22 0.19 0.19 0.23 0.23 0.24 0.23 0.22 0.24 0.22 0.16 0.20 0.22 0.23 0.29 0.35 0.50 0.68 0.80 0.95 1.12
0.48 0.47 0.53 0.49 0.26 0.34 0.37 0.39 0.24 0.16 0.18 0.16 0.18 0.21 0.20 0.18 0.18 0.19 0.20 0.20 0.20 0.21 0.20 0.23 0.22 0.20 0.21 0.19 0.23 0.23 0.21 0.16 0.15 0.16 0.15 0.22 0.21 0.22 0.32 0.45 0.51 0.70 0.85 0.93 1.07
0.53 0.44 0.49 0.46 0.44 0.37 0.31 0.30 0.20 0.20 0.17 0.21 0.21 0.21 0.20 0.21 0.19 0.19 0.19 0.18 0.21 0.21 0.20 0.19 0.17 0.20 0.20 0.18 0.21 0.22 0.22 0.17 0.13 0.13 0.14 0.20 0.14 0.18 0.42 0.57 0.68 0.77 0.97 0.96 0.95
0.51 0.47 0.42 0.45 0.48 0.39 0.28 0.22 0.19 0.22 0.24 0.19 0.20 0.18 0.20 0.23 0.22 0.20 0.19 0.19 0.21 0.21 0.18 0.17 0.16 0.23 0.25 0.22 0.22 0.24 0.21 0.24 0.20 0.20 0.16 0.18 0.21 0.25 0.45 0.48 0.64 0.77 0.92 0.93 0.96
0.33 0.46 0.42 0.56 0.50 0.31 0.25 0.22 0.23 0.25 0.28 0.25 0.18 0.21 0.20 0.22 0.23 0.23 0.19 0.24 0.20 0.21 0.22 0.20 0.16 0.21 0.25 0.26 0.24 0.22 0.26 0.21 0.21 0.16 0.15 0.18 0.18 0.16 0.35 0.42 0.60 0.71 0.78 0.91 0.94
0.36 0.31 0.57 0.58 0.39 0.28 0.23 0.23 0.25 0.28 0.27 0.23 0.24 0.21 0.21 0.23 0.24 0.24 0.24 0.29 0.33 0.27 0.23 0.21 0.19 0.19 0.23 0.22 0.23 0.23 0.22 0.24 0.24 0.22 0.17 0.17 0.17 0.26 0.33 0.52 0.59 0.69 0.81 0.87 0.79
0.30 0.27 0.60 0.49 0.25 0.26 0.26 0.28 0.30 0.26 0.28 0.25 0.25 0.23 0.20 0.21 0.25 0.25 0.26 0.30 0.38 0.35 0.25 0.23 0.21 0.17 0.18 0.25 0.26 0.25 0.25 0.25 0.20 0.21 0.23 0.20 0.18 0.26 0.32 0.46 0.64 0.71 0.85 0.88 0.81
0.23 0.37 0.59 0.50 0.24 0.23 0.27 0.27 0.27 0.25 0.24 0.24 0.23 0.24 0.24 0.21 0.23 0.26 0.28 0.34 0.37 0.43 0.36 0.27 0.22 0.17 0.19 0.22 0.26 0.23 0.24 0.25 0.27 0.27 0.24 0.21 0.22 0.37 0.43 0.47 0.58 0.68 0.87 0.89 0.87
0.27 0.40 0.46 0.42 0.41 0.32 0.29 0.29 0.29 0.32 0.27 0.25 0.24 0.26 0.25 0.21 0.26 0.26 0.27 0.32 0.36 0.38 0.44 0.36 0.28 0.23 0.18 0.21 0.23 0.23 0.24 0.28 0.31 0.26 0.29 0.27 0.29 0.34 0.40 0.44 0.53 0.72 0.83 0.89 0.93
0.33 0.45 0.57 0.40 0.36 0.39 0.41 0.40 0.34 0.31 0.31 0.30 0.26 0.24 0.23 0.23 0.23 0.23 0.30 0.30 0.33 0.38 0.44 0.41 0.31 0.30 0.29 0.28 0.28 0.28 0.28 0.30 0.31 0.34 0.29 0.33 0.34 0.41 0.49 0.53 0.60 0.76 0.92 0.95 0.95
0.28 0.47 0.62 0.48 0.54 0.50 0.48 0.43 0.39 0.38 0.34 0.29 0.31 0.32 0.27 0.24 0.25 0.23 0.28 0.30 0.30 0.35 0.36 0.42 0.33 0.37 0.30 0.31 0.32 0.29 0.32 0.35 0.36 0.36 0.36 0.38 0.37 0.55 0.60 0.63 0.61 0.67 0.77 0.88 0.99
0.40 0.63 0.61 0.53 0.54 0.49 0.45 0.44 0.43 0.43 0.39 0.39 0.37 0.35 0.29 0.27 0.34 0.38 0.37 0.37 0.37 0.35 0.33 0.35 0.36 0.34 0.27 0.35 0.33 0.27 0.31 0.32 0.37 0.43 0.43 0.35 0.46 0.57 0.50 0.53 0.60 0.64 0.70 0.74 0.88
Wind_Speed
7 7 7 7 7 6 6 6 6 7 7 8 8 8 8 9 9 9 9 7 6 7 4 4 2 2 1 3 4 4 5 7 8 9 10 6 4 5 5 6 7 8 11 13 10
10 10 9 9 9 8 8 8 8 8 8 9 9 9 9 9 7 8 10 11 10 9 6 5 3 2 2 3 3 3 5 6 8 8 9 6 3 3 4 4 5 7 10 10 9
13 12 12 11 11 11 11 11 10 10 10 10 10 10 9 8 5 4 7 12 12 10 7 5 4 4 4 4 2 2 5 9 9 9 9 6 4 2 3 3 3 3 6 6 8
15 15 15 14 14 14 14 13 13 12 12 11 11 10 10 6 4 4 4 12 14 10 9 7 6 6 6 5 4 6 8 9 10 12 7 4 4 4 4 5 4 3 3 5 7
18 18 18 17 17 16 17 16 16 15 14 13 12 10 8 6 7 5 4 8 12 11 11 10 9 8 9 7 7 8 8 9 11 9 6 4 4 5 5 3 3 2 1 2 5
21 21 21 20 20 19 19 19 19 18 17 15 13 11 8 9 8 7 6 8 10 12 12 12 11 10 10 10 9 9 12 13 8 6 6 6 6 5 5 1 1 1 2 1 3
24 24 23 23 22 22 22 21 21 20 19 17 15 12 11 12 10 9 8 9 10 11 12 12 12 12 10 11 10 11 12 11 7 7 7 8 6 7 5 3 1 1 3 2 2
26 26 26 26 25 25 24 24 23 22 20 18 16 14 14 11 11 13 13 12 11 11 11 12 12 13 13 12 11 11 10 10 7 8 8 8 11 11 4 5 3 2 3 4 4
27 27 27 28 27 27 27 26 24 21 20 18 17 16 16 12 13 13 14 14 12 12 11 11 11 12 12 12 13 10 12 10 10 9 8 9 12 9 4 5 5 4 4 5 5
27 28 28 28 28 29 28 27 24 23 21 20 19 17 17 13 12 12 13 14 14 13 11 11 10 11 11 13 15 12 13 11 13 9 13 13 11 10 6 7 7 6 6 7 7
27 28 28 28 28 28 27 25 24 24 24 23 19 19 17 16 16 14 13 12 13 13 14 12 13 13 14 13 13 13 14 15 16 13 11 10 9 11 7 7 8 8 9 8 8
27 27 28 28 28 27 25 24 23 24 25 26 27 27 25 21 18 17 16 15 14 16 13 14 15 15 12 12 13 13 15 17 16 9 11 10 9 6 7 7 8 8 9 10 8
27 27 27 27 27 24 24 24 23 24 25 25 26 26 24 25 23 21 19 16 15 15 16 18 15 11 14 15 15 15 15 16 16 12 9 10 7 7 7 6 6 8 9 11 10
25 25 26 26 23 23 24 23 23 23 24 26 24 23 23 24 24 22 23 19 17 19 15 16 16 18 16 15 13 14 11 14 15 13 11 9 10 8 7 7 7 8 10 11 11
25 24 24 23 24 23 22 23 21 21 20 20 24 23 23 24 22 22 23 24 23 18 15 14 12 14 14 13 12 11 10 11 11 11 11 10 12 9 11 11 11 11 10 10 11
24 24 23 21 23 24 23 21 20 20 22 18 18 18 21 25 25 22 22 23 23 21 19 17 15 14 15 14 14 11 11 9 9 9 12 9 12 12 11 12 11 11 11 10 9
24 24 23 22 20 21 22 21 20 22 18 18 17 15 16 17 20 21 22 23 24 20 22 20 19 17 17 16 14 12 11 10 11 11 13 9 13 15 13 12 13 10 10 8 7
23 23 21 22 21 20 21 22 23 22 23 17 17 16 15 14 16 19 19 21 21 19 16 20 19 18 18 20 17 15 12 10 12 12 12 10 11 11 11 12 12 11 9 8 7
22 19 19 19 21 21 21 24 23 22 18 20 17 17 14 13 13 16 20 19 22 21 19 15 16 14 13 14 17 15 14 10 9 10 12 11 13 16 13 13 11 11 11 10 9
18 17 17 18 19 20 21 24 21 20 19 16 18 15 13 13 12 14 15 16 18 21 20 18 16 13 11 13 13 17 14 12 12 11 13 10 11 11 9 11 11 11 12 11 9
15 14 14 16 18 19 21 21 23 22 20 17 15 16 15 12 13 13 14 13 13 15 19 18 18 14 13 14 14 12 14 11 11 12 13 11 9 9 11 7 11 12 11 9 9
12 12 12 14 16 18 19 20 18 21 22 21 19 18 17 15 14 14 14 13 11 14 15 17 16 18 19 14 14 14 14 14 15 12 11 11 11 9 11 10 11 12 11 10 9
12 12 12 13 14 16 17 18 20 21 23 23 22 22 19 17 15 15 15 13 9 11 12 15 15 15 14 13 14 15 14 14 11 11 12 11 10 8 9 11 12 14 12 11 10
10 10 11 14 12 12 12 14 16 17 21 23 25 23 20 20 19 15 15 14 11 9 8 10 12 14 14 12 11 14 14 14 13 11 10 13 11 10 10 11 11 13 14 13 12
10 9 11 11 14 14 12 12 15 15 17 18 20 26 24 21 19 19 17 14 14 10 10 9 10 12 11 11 12 13 15 14 14 11 11 9 11 8 8 8 9 11 14 15 15
10 9 11 12 11 11 11 11 12 14 16 16 19 18 25 22 21 20 18 16 14 12 11 10 10 10 10 10 10 10 11 12 13 12 11 8 7 7 9 9 10 11 14 16 18
9 9 12 12 10 10 10 8 9 9 14 16 16 16 21 25 20 18 18 16 15 13 12 11 11 11 12 9 10 12 11 13 12 10 12 11 10 12 12 12 12 13 14 15 19
Wind_Direction
277 281 282 281 279 274 276 282 293 304 313 320 321 315 310 299 285 251 239 233 213 185 165 151 133 94 89 358 358 21 16 19 16 16 16 29 32 30 16 32 26 23 17 22 47
272 275 279 279 276 272 272 275 284 294 302 310 317 312 313 308 287 253 240 218 202 195 193 193 209 211 303 320 340 356 3 357 356 351 353 350 344 28 28 23 10 19 17 37 43
270 271 274 276 275 271 270 272 278 284 292 299 307 312 310 307 275 261 241 214 208 208 216 223 222 252 276 292 276 318 331 332 333 328 335 324 322 1 358 347 331 3 29 42 38
269 269 270 273 273 271 269 271 274 278 283 290 298 303 303 289 262 278 248 207 206 218 217 231 240 261 273 272 263 290 301 312 326 329 339 346 345 334 293 324 335 1 37 59 41
267 269 269 270 272 271 269 269 270 273 276 280 286 292 289 275 257 268 225 202 208 225 235 240 246 258 265 272 276 278 304 314 316 326 338 337 301 328 316 337 356 18 72 70 33
265 266 268 268 269 270 269 268 268 269 270 273 275 277 273 267 251 247 226 214 225 232 241 243 252 252 266 264 268 283 293 303 317 321 330 322 308 323 337 334 356 302 185 117 18
266 265 265 266 268 268 268 268 267 266 267 265 263 262 262 260 246 238 231 237 238 238 243 246 251 251 257 266 269 278 291 297 310 325 325 308 288 309 308 279 307 281 202 227 329
266 266 265 265 266 266 266 266 266 264 260 258 252 255 257 255 252 245 241 246 242 242 249 254 250 255 254 264 267 273 275 279 289 315 327 309 297 317 286 248 253 243 242 239 275
267 266 266 265 265 265 265 265 262 256 252 247 249 250 254 254 254 248 242 243 240 244 253 254 254 253 251 256 264 272 274 272 277 302 300 313 304 297 278 252 244 246 252 244 262
268 267 266 265 265 264 264 261 252 250 247 248 247 249 247 248 248 248 248 242 242 242 247 251 251 249 251 251 261 266 273 266 272 277 295 302 288 293 291 255 251 254 257 247 259
270 268 267 266 265 264 260 251 249 246 245 242 241 244 247 252 251 248 244 241 238 240 244 252 249 248 253 253 260 265 265 268 268 273 283 294 282 306 308 269 261 250 249 246 265
271 270 268 266 265 260 251 245 244 248 250 245 246 247 248 249 250 247 241 241 239 237 242 247 250 252 252 249 256 264 269 269 270 249 272 283 289 312 323 302 268 248 245 244 260
272 270 268 267 263 250 248 240 249 247 247 247 243 245 244 239 243 244 237 239 241 238 241 249 250 251 246 252 262 264 264 264 252 265 269 280 258 283 308 313 292 263 252 250 258
275 272 268 268 250 252 243 241 253 242 248 244 242 243 239 238 244 239 237 238 241 240 241 255 251 244 247 248 246 264 259 266 254 251 263 273 273 275 287 299 289 271 260 253 252
275 273 270 259 252 245 241 248 244 239 247 243 238 241 239 237 246 241 239 238 233 233 234 246 239 232 232 237 238 256 269 268 244 239 254 256 266 268 270 277 277 274 266 251 241
278 272 268 256 249 243 242 244 231 234 239 244 239 236 240 241 244 242 235 234 235 232 241 244 244 242 241 240 239 256 259 257 247 250 255 258 264 263 267 277 279 272 255 245 249
281 273 263 253 244 241 239 230 229 232 239 238 237 241 246 241 237 232 225 223 225 228 233 238 241 243 239 243 239 242 249 251 245 248 262 267 266 274 266 274 270 259 248 235 247
283 275 257 247 242 237 228 224 231 235 234 239 241 247 242 240 236 227 221 222 226 229 233 232 242 235 233 235 239 232 241 246 253 256 269 266 268 280 262 273 270 250 241 229 263
286 267 255 245 236 229 223 223 232 231 235 239 241 238 238 235 235 225 223 223 223 221 227 227 240 236 237 233 229 229 237 245 245 262 267 274 272 277 269 259 249 242 237 238 260
286 267 250 243 228 220 224 230 231 230 234 234 232 231 232 238 230 224 214 223 231 227 232 230 240 233 231 225 236 236 226 239 249 252 261 262 272 267 278 256 238 234 236 243 264
283 263 253 235 219 221 227 232 234 230 232 232 228 229 228 232 232 226 220 223 230 226 226 224 232 229 232 229 224 227 232 240 248 258 260 263 261 251 266 265 233 235 236 243 261
277 256 248 219 224 228 230 230 234 235 229 232 232 232 232 236 231 226 222 226 233 227 223 226 230 233 234 233 240 237 235 237 248 244 253 265 260 260 260 257 246 243 241 244 256
271 252 232 228 228 228 231 235 237 236 232 229 230 229 229 226 224 224 223 221 236 226 229 220 229 232 228 229 232 235 234 238 240 246 241 250 260 263 266 259 252 246 242 245 256
254 249 229 224 227 227 228 234 238 237 237 232 232 230 227 226 222 226 223 224 230 232 228 217 225 231 238 240 239 229 229 228 234 239 237 248 262 266 269 267 262 251 248 248 251
241 251 231 225 225 231 237 242 246 241 231 228 227 225 222 225 221 223 226 227 223 232 228 229 226 228 235 236 240 238 225 218 229 244 242 238 247 282 291 287 288 262 251 251 251
243 255 230 226 227 233 228 238 239 235 228 227 228 227 220 223 223 221 222 226 228 230 230 237 233 237 235 239 243 237 229 229 236 238 252 258 246 291 285 290 295 279 263 252 254
240 245 226 222 227 227 223 231 236 238 225 227 233 232 218 220 226 226 224 225 229 236 238 241 237 241 240 251 242 235 239 237 230 234 250 245 263 285 288 299 302 296 281 268 262